#timestamp,LO_Frequency,Hit 
1503475215.4,286047007.6,N
1503475235.2,286047003.5,N
1503475255.0,286047004.0,N
1503475255.9,286047004.0,N
1503475275.8,286047003.0,N
1503475295.6,286047003.4,N
1503475315.4,286046999.6,N
1503475335.3,286046998.3,N
1503475355.1,286047000.8,N
1503475356.0,286047000.8,N
1503475375.8,286047001.7,N
1503475395.6,286047005.8,N
1503475415.5,286047001.3,N
1503475435.3,286047000.7,N
1503475455.1,286047002.0,N
1503475475.9,286047001.3,N
1503475495.7,286047004.3,N
1503475515.5,286046999.9,N
1503475535.4,286047003.8,N
1503475555.2,286047001.9,N
1503475575.0,286047001.2,N
1503475575.9,286047001.2,N
1503475595.8,286046999.0,N
1503475615.6,286046998.1,N
1503475635.4,286046999.9,N
1503475655.3,286047001.2,N
1503475675.1,286047001.0,N
1503475676.0,286047001.0,N
1503475695.8,286047000.9,N
1503475715.7,286046998.3,N
1503475735.5,286047000.0,N
1503475755.3,286046998.5,N
1503475775.2,286047000.6,N
1503475795.9,286047002.0,N
1503475815.7,286046998.4,N
1503475835.5,286046998.7,N
1503475855.4,286046999.8,N
1503475875.2,286047002.2,N
1503475895.0,286047001.1,N
1503475895.9,286047001.1,N
1503475915.8,286046998.5,N
1503475935.6,286047000.6,N
1503475955.4,286047000.7,N
1503475975.3,286047005.3,P
1503475995.1,286047004.6,N
1503476015.8,286047007.0,P
1503476035.7,286047001.7,N
1503476055.5,286047003.9,N
1503476075.4,286047007.2,P
1503476095.2,286047004.4,N
1503476115.0,286046998.1,N
1503476115.9,286046998.1,N
1503476135.7,286046999.5,N
1503476155.6,286046999.3,N
1503476175.4,286047002.7,N
1503476195.2,286047002.6,N
1503476215.1,286047001.4,N
1503476216.0,286047001.4,N
1503476235.8,286047002.4,N
1503476255.6,286047002.1,N
1503476275.5,286047000.7,N
1503476295.3,286046996.5,N
1503476315.1,286046998.0,N
1503476335.9,286046995.8,N
1503476355.7,286046994.9,N
1503476375.5,286046997.1,N
1503476395.4,286046998.0,N
1503476415.2,286046997.5,N
1503476435.0,286046996.2,N
1503476435.9,286046996.2,N
1503476455.8,286046993.6,N
1503476475.6,286046996.5,N
1503476495.4,286047000.6,N
1503476515.2,286046998.4,N
1503476535.1,286047002.0,N
1503476536.0,286047002.0,N
1503476555.8,286047002.6,N
1503476575.6,286046997.7,N
1503476595.5,286046995.0,N
1503476615.3,286047001.2,N
1503476635.1,286046999.7,N
1503476655.9,286046999.4,N
1503476675.7,286047001.2,N
1503476695.5,286047000.7,N
1503476715.4,286046999.6,N
1503476735.2,286046999.5,N
1503476755.0,286046996.0,N
1503476755.9,286046996.0,N
1503476775.8,286046992.8,N
1503476795.6,286046991.8,P
1503476815.4,286046993.4,N
1503476835.3,286046998.8,N
1503476855.1,286046997.3,N
1503476856.0,286046997.3,N
1503476875.8,286046998.8,N
1503476895.7,286047000.7,N
1503476915.5,286047000.5,N
1503476935.3,286046997.0,N
1503476955.2,286046999.6,N
1503476975.9,286046997.1,N
1503476995.7,286046993.8,N
1503477015.5,286046996.2,N
1503477035.4,286046998.8,N
1503477055.2,286046996.2,N
1503477075.0,286046992.9,N
1503477075.9,286046992.9,N
1503477095.8,286046991.8,P
1503477115.6,286046995.5,N
1503477135.4,286046995.3,N
1503477155.3,286046995.0,N
1503477175.1,286046997.7,N
1503477195.8,286046998.5,N
1503477215.7,286046999.4,N
1503477235.5,286046999.4,N
1503477255.3,286046997.4,N
1503477275.2,286046997.9,N
1503477295.9,286046997.4,N
1503477315.7,286046997.2,N
1503477335.6,286046999.0,N
1503477355.4,286047000.6,N
1503477375.2,286046996.9,N
1503477395.1,286046999.5,N
1503477396.0,286046999.5,N
1503477415.8,286046998.3,N
1503477435.6,286046997.7,N
1503477455.5,286046995.8,N
1503477475.3,286046995.7,N
1503477495.1,286046994.1,P
1503477515.9,286046994.9,P
1503477535.7,286046995.1,P
1503477555.5,286046999.4,N
1503477575.4,286046996.6,N
1503477595.2,286047001.0,N
1503477615.0,286046998.9,N
1503477615.9,286046998.9,N
1503477635.8,286047002.6,N
1503477655.6,286046998.7,N
1503477675.4,286047002.2,N
1503477695.2,286047003.7,N
1503477715.1,286046999.7,N
1503477716.0,286046999.7,N
1503477735.8,286047000.0,N
1503477755.6,286047005.5,N
1503477775.5,286047002.8,N
1503477795.3,286047000.6,N
1503477815.1,286047000.3,N
1503477835.9,286047001.4,N
1503477855.7,286047003.3,N
1503477875.5,286047005.6,N
1503477895.4,286047005.3,N
1503477915.2,286047005.7,N
1503477935.0,286047006.8,N
1503477935.9,286047006.8,N
1503477955.8,286047004.6,N
1503477975.6,286047004.9,N
1503477995.4,286047002.1,N
1503478015.3,286047001.8,N
1503478035.1,286047002.9,N
1503478036.0,286047002.9,N
1503478055.8,286047005.0,N
1503478075.7,286047002.9,N
1503478095.5,286047001.9,N
1503478115.3,286047001.4,N
1503478135.1,286046997.1,N
1503478155.9,286047000.2,N
1503478175.7,286047000.4,N
1503478195.5,286047004.4,N
1503478215.4,286047003.7,N
1503478235.2,286047004.8,N
1503478255.0,286047002.6,N
1503478255.9,286047002.6,N
1503478275.8,286047002.3,N
1503478295.6,286047002.7,N
1503478315.4,286047003.1,N
1503478335.3,286046999.7,N
1503478355.1,286047000.9,N
1503478356.0,286047000.9,N
1503478375.8,286047002.5,N
1503478395.7,286047000.6,N
1503478415.5,286046999.0,N
1503478435.3,286046996.7,N
1503478455.2,286046999.1,N
1503478475.9,286046998.3,N
1503478495.7,286047000.3,N
1503478515.6,286047000.4,N
1503478535.4,286047000.2,N
1503478555.2,286047000.8,N
1503478575.0,286047001.1,N
1503478576.0,286047001.1,N
1503478595.8,286047000.5,N
1503478615.6,286046999.1,N
1503478635.4,286047000.7,N
1503478655.3,286047000.4,N
1503478675.1,286047002.5,N
1503478695.8,286047002.4,N
1503478715.7,286046997.2,N
1503478735.5,286047000.1,N
1503478755.3,286047002.2,N
1503478775.2,286047000.8,N
1503478795.9,286046999.9,N
